星链-3184 (STARLINK-3184 )

导读 | 星芒AI

STARLINK-3184 是 SpaceX 星链计划中的一颗低轨通信卫星,属于第 11 批组网发射的星链卫星之一。它运行在约 550 公里的近地轨道,旨在为全球用户提供高速互联网服务。该卫星采用先进推进系统和激光通信技术,提高网络稳定性和传输效率。作为星链星座的重要组成部分,STARLINK-3184 支持偏远地区通信,助力实现全球宽带覆盖目标。

基本信息
目录编号:
51143
目录名称:
STARLINK-3184
国际标识:
2022-005AR
轨道中心:
EARTH
卫星名称:
星链-3184
卫星全名:
星链-3184 (STARLINK-3184 )
卫星状态:
在轨 (已飞行1383 天)
发射日期:
2022-01-19 UTC
国别 :
美国 (US)
星等 :
--
轨道信息
数据来源 国际轨道数据 AOE轨道数据
星历时间 2025-11-01T21:52:08+0800
20小时前
查看轨道信息
2025-10-28T18:00:00+0800
5天前
查看轨道信息
半长轴 6917.905km 6917.909km
偏心率 0.0001345 0.0001254
轨道倾角 53.216° 53.215°
近地点辐角 80.516° 105.805°
升交点赤经 164.236° 182.919°
平近点角 279.598° 319.023°
近地点 538.839km 538.906km
远地点 540.701km 540.642km
周期 95.438分钟 95.438分钟
每日圈数 15.088322 15.088307
详细信息
固有亮度:
5
最大亮度:
2.5
卫星平台:
Starlink v1.5
覆盖范围:
全球
运营商:
太空探索技术公司
运营商所在国:
美国
制造商(研发单位):
太空探索技术公司
制造商所在国:
美国
使用方式:
暂无
卫星简介
星链(Starlink)计划是由太空探索技术公司(SpaceX)提出的一个巨型低轨卫星互联网星座项目,计划在2019年至2024年间在太空搭建由约1.2万颗卫星组成的“星链”网络,其中1584颗将部署在地球上空550千米处的近地轨道,并从2020年开始工作。该卫星仍在工作。
2D轨道图
3D轨道图
轨道高度分析图
轨道倾角分析图
轨道综合分析图
查看轨道综合分析图